Weather History for Wahpeton, ND

Change the Weather History Date:

Friday, February 8, 2013

  Actual Average (KFFM) Record (KFFM)
Temperature  
Mean Temperature 14 °F -  
Max Temperature 24 °F 19 °F 49 °F (1991)
Min Temperature 5 °F 0 °F -25 °F (2007)
Degree Days  
Heating Degree Days 50    
Moisture  
Dew Point 13 °F    
Average Humidity 87    
Maximum Humidity 93    
Minimum Humidity 79    
Precipitation  
Precipitation 0.00 in - - ()
Sea Level Pressure  
Sea Level Pressure 30.19 in    
Wind  
Wind Speed 7 mph (SE)    
Max Wind Speed 25 mph    
Max Gust Speed 31 mph    
Visibility 6 miles    
Events      
Averages and records for this station are not official NWS values.
T = Trace of Precipitation, MM = Missing Value Source: NWS Daily Summary

Daily Weather History Graph

Daily Weather History Graph

Search for Another Location

Airport:

Trip Planner

Search our weather history database for the weather conditions in past years. The results will help you decide how hot, cold, wet, or windy it might be!

Date:

Astronomy

Feb. 08, 2013 Rise Set
Actual Time 7:39 AM CST 5:42 PM CST
Civil Twilight 7:08 AM CST 6:13 PM CST
Nautical Twilight 6:32 AM CST 6:49 PM CST
Astronomical Twilight 5:57 AM CST 7:24 PM CST
Moon 6:11 AM CST (2/8) 4:15 PM CST (2/8)
Length of Visible Light 11h 05m
Length of Day
10h 02m
Waning Crescent, 3% of the Moon is Illuminated
Feb 8
Waning Crescent
Feb 10
New
Feb 17
First Quarter
Feb 25
Full
Mar 4
Last Quarter

Hourly Weather History & Observations

Time (CST) Temp. Windchill Dew Point Humidity Pressure Visibility Wind Dir Wind Speed Gust Speed Precip Events Conditions
12:15 AM 12.2 °F 6.1 °F 8.6 °F 85% 30.28 in 0.5 mi East 3.5 mph - N/A   Overcast
12:35 AM 12.2 °F - 8.6 °F 85% 30.29 in 0.2 mi Calm Calm - N/A   Overcast
12:55 AM 12.2 °F - 8.6 °F 85% 30.30 in 0.2 mi Calm Calm - N/A   Overcast
1:15 AM 12.2 °F - 10.4 °F 92% 30.30 in 0.2 mi Calm Calm - N/A   Overcast
1:35 AM 12.2 °F 6.1 °F 8.6 °F 85% 30.30 in 0.2 mi North 3.5 mph - N/A   Overcast
1:55 AM 12.2 °F - 8.6 °F 85% 30.30 in 0.5 mi Calm Calm - N/A   Overcast
2:15 AM 12.2 °F - 8.6 °F 85% 30.31 in 0.5 mi Calm Calm - N/A   Overcast
2:35 AM 12.2 °F - 8.6 °F 85% 30.31 in 0.2 mi Calm Calm - N/A   Overcast
2:55 AM 12.2 °F - 8.6 °F 85% 30.31 in 0.2 mi Calm Calm - N/A   Overcast
3:15 AM 12.2 °F - 8.6 °F 85% 30.31 in 0.2 mi Calm Calm - N/A   Overcast
3:35 AM 10.4 °F - 8.6 °F 92% 30.30 in 0.5 mi Calm Calm - N/A   Overcast
3:55 AM 10.4 °F - 6.8 °F 85% 30.29 in 0.5 mi Calm Calm - N/A   Overcast
4:15 AM 8.6 °F 2.0 °F 5.0 °F 85% 30.29 in 0.5 mi East 3.5 mph - N/A   Overcast
4:35 AM 8.6 °F - 5.0 °F 85% 30.29 in 0.8 mi Calm Calm - N/A   Overcast
4:55 AM 8.6 °F - 3.2 °F 79% 30.29 in 5.0 mi Calm Calm - N/A   Scattered Clouds
5:15 AM 6.8 °F - 3.2 °F 85% 30.30 in 10.0 mi Calm Calm - N/A   Clear
5:35 AM 5.0 °F - 3.2 °F 92% 30.29 in 7.0 mi Calm Calm - N/A   Mostly Cloudy
5:55 AM 6.8 °F - 3.2 °F 85% 30.29 in 7.0 mi Calm Calm - N/A   Overcast
6:15 AM 6.8 °F - 3.2 °F 85% 30.28 in 3.0 mi Calm Calm - N/A   Overcast
6:35 AM 6.8 °F -0.1 °F 3.2 °F 85% 30.28 in 1.5 mi SE 3.5 mph - N/A   Overcast
6:55 AM 6.8 °F -2.0 °F 3.2 °F 85% 30.27 in 1.2 mi SE 4.6 mph - N/A   Overcast
7:15 AM 6.8 °F -0.1 °F 3.2 °F 85% 30.28 in 1.0 mi SSE 3.5 mph - N/A   Overcast
7:35 AM 5.0 °F - 3.2 °F 92% 30.28 in 0.8 mi Calm Calm - N/A   Overcast
7:55 AM 5.0 °F - 1.4 °F 85% 30.28 in 4.0 mi Calm Calm - N/A   Scattered Clouds
8:15 AM 5.0 °F -4.1 °F 3.2 °F 92% 30.28 in 7.0 mi SE 4.6 mph - N/A   Clear
8:35 AM 6.8 °F -0.1 °F 3.2 °F 85% 30.28 in 10.0 mi SSE 3.5 mph - N/A   Clear
8:55 AM 6.8 °F -0.1 °F 3.2 °F 85% 30.29 in 10.0 mi SE 3.5 mph - N/A   Clear
9:15 AM 8.6 °F 0.1 °F 3.2 °F 79% 30.28 in 10.0 mi SE 4.6 mph - N/A   Clear
9:35 AM 8.6 °F -1.3 °F 5.0 °F 85% 30.28 in 10.0 mi SE 5.8 mph - N/A   Clear
9:55 AM 10.4 °F 2.2 °F 6.8 °F 85% 30.28 in 10.0 mi SE 4.6 mph - N/A   Clear
10:15 AM 12.2 °F 4.3 °F 8.6 °F 85% 30.28 in 10.0 mi SE 4.6 mph - N/A   Clear
10:35 AM 12.2 °F 1.7 °F 10.4 °F 92% 30.28 in 10.0 mi SSE 6.9 mph - N/A   Clear
10:55 AM 14.0 °F 0.5 °F 12.2 °F 93% 30.27 in 7.0 mi SSE 11.5 mph - N/A   Clear
11:15 AM 17.6 °F 3.2 °F 14.0 °F 86% 30.26 in 10.0 mi SSE 15.0 mph - N/A   Clear
11:35 AM 17.6 °F 2.7 °F 15.8 °F 93% 30.25 in 10.0 mi SSE 16.1 mph - N/A   Clear
11:55 AM 19.4 °F 5.5 °F 15.8 °F 86% 30.24 in 10.0 mi SSE 15.0 mph - N/A   Clear
12:15 PM 19.4 °F 5.5 °F 17.6 °F 93% 30.23 in 10.0 mi SSE 15.0 mph - N/A   Clear
12:35 PM 21.2 °F 7.3 °F 17.6 °F 86% 30.22 in 10.0 mi SE 16.1 mph - N/A   Clear
12:55 PM 21.2 °F 6.8 °F 19.4 °F 93% 30.20 in 10.0 mi SE 17.3 mph - N/A   Clear
1:15 PM 23.0 °F 8.0 °F 19.4 °F 86% 30.19 in 7.0 mi SSE 20.7 mph 25.3 mph N/A   Clear
1:35 PM 23.0 °F 8.0 °F 19.4 °F 86% 30.18 in 10.0 mi SE 20.7 mph 26.5 mph N/A   Clear
1:55 PM 24.8 °F 10.3 °F 19.4 °F 80% 30.16 in 7.0 mi SSE 20.7 mph 26.5 mph N/A   Clear
2:15 PM 24.8 °F 10.0 °F 19.4 °F 80% 30.16 in 5.0 mi SSE 21.9 mph 28.8 mph N/A   Clear
2:35 PM 24.8 °F 9.3 °F 19.4 °F 80% 30.14 in 7.0 mi SSE 24.2 mph - N/A   Clear
2:55 PM 24.8 °F 10.0 °F 19.4 °F 80% 30.13 in 5.0 mi SSE 21.9 mph 28.8 mph N/A   Clear
3:15 PM 24.8 °F 9.0 °F 19.4 °F 80% 30.12 in 7.0 mi SSE 25.3 mph 31.1 mph N/A   Clear
3:35 PM 23.0 °F 7.2 °F 19.4 °F 86% 30.11 in 7.0 mi SSE 23.0 mph - N/A   Clear
3:55 PM 23.0 °F 7.6 °F 19.4 °F 86% 30.11 in 7.0 mi SE 21.9 mph 26.5 mph N/A   Clear
4:15 PM 23.0 °F 8.0 °F 19.4 °F 86% 30.10 in 10.0 mi SE 20.7 mph 27.6 mph N/A   Clear
4:35 PM 23.0 °F 7.6 °F 17.6 °F 80% 30.09 in 5.0 mi SE 21.9 mph 31.1 mph N/A   Clear
4:55 PM 23.0 °F 7.6 °F 19.4 °F 86% 30.09 in 7.0 mi SE 21.9 mph 28.8 mph N/A   Mostly Cloudy
5:15 PM 23.0 °F 8.0 °F 19.4 °F 86% 30.08 in 7.0 mi SE 20.7 mph 26.5 mph N/A   Overcast
5:35 PM 23.0 °F 8.3 °F 19.4 °F 86% 30.08 in 7.0 mi SE 19.6 mph 29.9 mph N/A   Overcast
5:55 PM 23.0 °F 8.3 °F 19.4 °F 86% 30.09 in 10.0 mi SE 19.6 mph 24.2 mph N/A   Overcast
6:15 PM 23.0 °F 8.7 °F 19.4 °F 86% 30.10 in 10.0 mi SSE 18.4 mph - N/A   Overcast
6:35 PM 23.0 °F 9.2 °F 19.4 °F 86% 30.10 in 10.0 mi SE 17.3 mph 24.2 mph N/A   Overcast
6:55 PM 23.0 °F 8.3 °F 19.4 °F 86% 30.10 in 10.0 mi SE 19.6 mph 26.5 mph N/A   Overcast
7:15 PM 23.0 °F 8.0 °F 21.2 °F 93% 30.09 in 10.0 mi SE 20.7 mph 25.3 mph N/A   Overcast
7:55 PM 23.0 °F 9.2 °F 21.2 °F 93% 30.08 in 10.0 mi SE 17.3 mph 21.9 mph N/A   Overcast
8:15 PM 23.0 °F 9.2 °F 21.2 °F 93% 30.08 in 10.0 mi SE 17.3 mph - N/A   Overcast
8:35 PM 24.8 °F 11.5 °F 21.2 °F 86% 30.08 in 10.0 mi SE 17.3 mph 23.0 mph N/A   Overcast
8:55 PM 24.8 °F 11.1 °F 21.2 °F 86% 30.06 in 7.0 mi SE 18.4 mph 25.3 mph N/A   Overcast
9:15 PM 23.0 °F 8.7 °F 21.2 °F 93% 30.06 in 7.0 mi SE 18.4 mph 25.3 mph N/A   Overcast
9:35 PM 23.0 °F 9.2 °F 19.4 °F 86% 30.06 in 10.0 mi SE 17.3 mph - N/A   Scattered Clouds
9:55 PM 23.0 °F 9.2 °F 19.4 °F 86% 30.06 in 10.0 mi SE 17.3 mph - N/A   Clear
10:15 PM 23.0 °F 9.2 °F 19.4 °F 86% 30.05 in 10.0 mi SE 17.3 mph - N/A   Scattered Clouds
10:35 PM 23.0 °F 8.7 °F 19.4 °F 86% 30.04 in 10.0 mi SE 18.4 mph - N/A   Scattered Clouds
10:55 PM 23.0 °F 8.3 °F 19.4 °F 86% 30.02 in 10.0 mi SSE 19.6 mph 28.8 mph N/A   Clear
11:15 PM 23.0 °F 8.3 °F 21.2 °F 93% 30.02 in 7.0 mi SSE 19.6 mph - N/A   Clear
11:35 PM 23.0 °F 8.3 °F 21.2 °F 93% 30.01 in 10.0 mi SSE 19.6 mph - N/A   Scattered Clouds
11:55 PM 23.0 °F 8.3 °F 21.2 °F 93% 30.01 in 10.0 mi SSE 19.6 mph 25.3 mph N/A   Clear